Wind_Speed
47 43 37 33 30 30 32 32 31 30 30 34 36 33 29 30 30 25 22 23 25 26 27 28 28 28 27 26 25 24 24 24 22 20 19 19 18 17 16 16 15 16 16 15 15 16 16 17 18 19 18 18 18 16 16 16 16 16 16 16 16 16 15 12 9 10 13 14 13 12 12 10 10 9 8 9 12 12 9 10 12 11 7 5 8
47 46 38 31 30 31 30 31 30 30 33 34 30 32 37 33 28 26 23 22 26 29 29 30 30 29 28 27 26 25 25 24 23 21 20 19 18 17 17 16 16 16 15 15 16 16 17 18 19 19 18 18 17 16 16 16 15 15 15 15 14 14 14 13 10 10 12 14 12 11 10 8 7 9 11 10 10 9 6 8 9 8 7 5 3
46 45 37 32 32 30 27 30 31 30 32 32 29 36 43 33 26 28 25 22 28 32 32 31 30 30 29 28 27 26 25 25 23 21 20 20 19 17 17 16 16 15 15 15 16 17 17 19 19 19 18 17 17 16 16 16 15 15 15 14 13 13 13 12 10 9 10 11 10 9 10 7 6 8 11 11 9 7 4 6 8 7 6 6 4
46 45 40 36 32 27 27 31 33 32 33 31 30 39 43 34 29 28 24 24 30 33 33 32 31 31 30 29 28 27 27 26 23 21 21 20 19 17 17 17 16 15 15 16 17 17 18 19 19 18 18 17 17 16 16 16 15 15 15 13 12 12 12 12 10 8 9 9 7 8 8 8 6 7 8 9 9 8 5 4 6 5 6 6 5
45 44 43 39 31 26 28 31 33 36 36 31 31 38 38 33 32 29 23 24 30 34 34 33 32 33 32 31 30 28 28 26 23 23 22 20 19 18 17 17 16 15 16 17 17 18 19 19 19 18 18 18 17 17 16 16 16 16 14 13 13 12 11 12 11 9 8 8 8 8 8 7 6 6 6 6 6 7 6 5 5 4 6 7 6
43 42 41 39 31 27 29 32 34 36 36 32 32 34 33 31 33 29 23 24 31 34 35 33 33 34 33 32 30 28 28 26 24 23 22 21 20 19 17 17 16 16 17 18 18 19 20 20 20 19 19 18 18 18 18 17 17 16 15 16 15 13 11 12 12 10 9 8 9 9 8 8 7 6 7 6 5 5 5 6 5 5 6 6 7
41 40 40 39 35 29 28 31 32 34 36 34 30 29 30 32 33 28 23 25 31 35 35 34 34 34 34 33 31 29 28 27 26 24 22 21 21 19 18 17 16 16 18 19 20 21 21 22 21 21 20 19 19 19 18 17 17 16 16 16 14 12 12 13 11 10 9 9 8 8 8 8 7 5 7 8 6 4 4 5 5 6 7 7 7
40 39 39 40 39 32 27 28 30 32 34 32 29 28 30 33 33 29 24 25 31 35 35 34 34 34 35 34 32 31 29 28 27 25 23 22 20 19 19 18 17 18 19 21 21 22 23 23 23 22 21 21 20 20 19 18 17 17 16 15 13 13 14 13 11 11 10 9 8 7 7 7 6 6 7 7 5 3 5 5 5 6 8 9 8
40 39 39 40 40 33 26 26 29 31 33 32 31 32 33 34 34 32 26 25 30 35 34 34 35 35 36 35 34 33 31 30 29 26 25 23 22 21 20 18 18 19 21 22 23 24 24 24 24 24 24 23 22 21 19 18 17 16 16 15 15 15 15 14 12 11 10 9 8 8 7 6 6 6 6 5 3 5 7 7 7 7 9 10 9
41 39 39 40 39 31 26 27 28 30 33 34 33 33 34 33 32 32 28 25 30 35 35 35 36 37 37 37 36 35 33 31 29 26 24 24 23 21 20 18 18 20 22 24 24 25 25 25 25 25 25 24 22 21 19 18 17 17 16 16 16 17 17 16 14 12 11 9 9 8 7 7 7 6 6 6 6 6 6 6 7 8 9 10 10
42 40 39 40 36 29 27 28 28 30 33 34 33 33 34 34 33 30 27 25 30 36 37 35 37 38 39 38 37 35 34 32 29 26 24 23 23 22 20 18 18 20 23 24 25 25 26 26 26 26 25 24 23 21 20 18 17 17 17 18 18 18 18 17 16 14 12 9 9 9 7 7 8 7 6 6 6 5 5 5 7 8 9 10 11
41 38 36 34 32 30 29 30 30 32 33 33 33 33 34 36 34 31 28 26 28 36 38 36 38 40 40 39 37 36 35 32 29 26 24 23 23 22 20 19 19 21 24 25 25 26 26 27 27 26 26 25 23 21 20 18 18 17 17 19 20 20 19 19 17 16 13 9 9 9 8 7 8 8 6 6 6 5 5 5 6 8 9 10 12
37 35 32 31 31 31 30 30 32 35 35 33 35 34 34 35 35 33 30 26 27 35 38 36 39 41 40 39 38 36 35 33 30 27 25 23 23 23 21 20 20 22 24 25 26 27 27 27 28 27 26 25 22 21 20 19 19 19 18 19 20 20 19 19 17 15 13 11 10 9 9 8 7 7 8 9 7 5 5 5 6 8 9 11 13
32 32 32 32 31 30 30 30 32 36 37 36 36 36 35 36 36 34 31 29 31 36 37 37 39 42 41 39 37 36 35 33 31 28 25 24 24 23 22 21 21 23 25 26 27 28 28 28 28 28 26 24 23 22 21 20 20 20 18 19 20 19 19 18 17 15 14 13 11 10 10 10 8 8 11 11 8 6 5 6 7 8 11 12 13
31 31 32 32 32 30 30 31 32 35 37 37 37 38 38 38 36 32 30 31 34 37 37 36 39 41 41 39 37 36 35 34 32 29 26 25 24 24 23 22 22 24 26 27 28 28 28 29 28 27 25 24 24 23 21 21 21 20 19 19 19 19 19 18 18 16 15 14 12 11 12 12 10 10 11 10 8 7 8 8 8 10 12 13 14
30 31 32 33 33 31 30 31 33 35 37 38 40 40 39 37 35 32 30 29 33 37 38 36 37 41 42 40 38 37 36 34 32 30 28 27 25 26 25 23 24 26 28 29 29 29 29 29 28 27 25 25 24 22 21 21 21 20 19 19 19 20 19 19 18 17 16 15 14 13 13 12 10 10 10 9 8 9 8 8 9 10 11 13 14
30 31 33 34 33 31 31 33 36 37 36 38 42 43 41 38 36 36 34 32 34 39 40 37 37 40 41 40 39 38 36 35 34 32 30 29 28 28 27 24 25 28 29 30 30 30 30 29 28 27 27 25 24 22 21 21 21 20 20 20 20 20 20 19 18 17 17 16 14 14 13 12 11 10 9 9 9 8 7 7 8 9 10 12 13
31 32 32 32 31 31 31 34 38 39 36 38 42 44 42 40 38 36 36 34 36 39 40 38 37 38 38 37 37 36 36 36 36 34 32 31 31 30 27 25 26 28 30 30 30 30 30 29 28 28 27 26 23 22 22 22 22 22 21 21 21 21 20 19 18 18 18 16 15 14 14 13 12 10 10 9 9 9 8 8 8 8 10 12 13
32 32 31 30 29 31 32 35 38 39 38 39 41 40 38 37 35 33 34 35 37 39 41 40 39 40 39 36 34 35 37 37 37 36 35 34 34 31 27 26 26 28 30 31 31 31 31 29 29 28 28 26 23 22 23 23 23 23 22 21 22 21 20 19 18 18 17 16 15 15 14 14 12 11 11 11 10 10 9 9 9 9 11 12 12
31 30 30 27 28 31 35 37 39 39 40 40 38 36 35 34 33 33 35 37 38 38 40 42 42 42 41 37 35 36 38 38 39 38 37 36 34 31 28 27 27 29 32 32 32 32 31 30 29 29 28 25 23 23 24 23 23 22 22 21 22 21 20 19 19 18 17 16 16 15 14 14 14 13 12 12 11 11 10 10 10 10 12 13 12
29 30 28 26 28 32 35 38 39 38 37 37 36 35 33 32 33 34 36 39 39 38 39 42 43 43 44 42 39 38 39 40 40 39 38 37 35 32 29 28 28 29 32 33 33 33 32 30 30 30 28 25 23 23 23 22 22 22 21 21 22 21 19 18 18 18 17 16 16 15 15 14 14 13 13 12 12 12 11 10 11 11 12 13 13
28 28 26 26 30 33 33 34 35 34 33 34 35 35 34 33 34 36 38 39 39 37 37 39 41 43 44 44 42 41 42 42 41 41 40 38 36 32 30 29 29 28 30 33 33 32 31 31 30 29 27 24 23 23 22 21 21 21 21 21 21 20 19 18 18 18 18 16 15 14 14 14 14 13 13 12 12 13 12 11 11 12 13 14 14
24 25 25 27 30 32 32 31 31 33 36 37 35 34 35 35 35 37 40 41 40 37 35 35 37 40 43 44 44 44 44 43 42 42 40 38 35 32 30 30 29 27 29 31 31 30 30 30 28 25 23 22 22 22 22 21 21 21 21 21 19 18 18 18 17 17 17 16 15 14 14 14 13 13 13 12 11 12 12 12 11 12 14 15 15
23 25 27 28 29 31 32 33 32 33 36 37 34 32 34 36 38 39 40 41 43 41 36 34 37 40 41 42 45 47 46 43 43 41 39 37 35 32 31 30 28 26 27 27 28 29 29 27 24 21 21 21 21 21 21 21 21 21 20 19 18 18 18 17 15 15 16 15 15 15 15 14 13 13 12 12 11 11 13 13 14 14 15 16 16
25 27 27 27 28 31 32 33 35 36 36 34 32 34 35 37 40 42 41 40 42 44 41 38 38 39 40 40 45 48 46 42 42 41 39 36 34 32 31 29 27 25 24 25 27 28 26 22 20 19 19 20 20 20 21 21 20 20 19 18 18 18 17 16 14 14 15 15 15 16 15 14 14 13 12 12 13 14 15 15 14 14 14 15 16
24 27 27 26 29 32 33 33 34 35 34 32 32 35 37 37 38 41 44 44 44 45 46 44 41 40 39 39 43 47 46 41 40 42 42 38 36 34 31 29 27 24 23 24 25 24 22 20 18 18 18 19 20 20 21 20 20 21 21 20 19 19 18 17 15 14 15 15 15 15 14 13 13 12 13 14 15 15 14 13 12 13 13 14 15
23 26 28 28 28 29 32 34 34 33 34 34 35 36 38 39 40 41 43 46 47 48 47 46 42 40 40 40 41 43 43 39 39 43 45 42 40 37 33 29 27 25 24 24 23 23 22 20 18 18 17 18 19 20 19 19 21 23 23 23 22 22 21 19 17 16 16 16 15 14 14 13 12 12 13 14 15 13 12 12 12 13 12 13 14
21 23 26 29 30 29 30 33 36 36 35 36 38 39 40 44 46 45 43 41 43 46 48 45 41 39 40 41 39 38 38 39 41 45 47 46 43 39 34 32 30 28 26 25 25 26 25 22 19 19 19 20 22 22 21 22 23 24 25 24 24 24 23 21 20 19 17 16 15 14 13 13 13 13 13 13 13 12 11 11 12 12 12 12 14
19 21 22 25 28 30 29 30 34 36 36 37 39 40 41 44 45 45 43 40 38 39 42 41 38 37 37 36 36 38 41 42 41 43 47 47 44 40 37 35 32 29 27 27 29 30 27 24 23 23 24 24 25 25 25 24 24 25 26 26 24 23 23 24 24 23 21 18 16 15 14 13 13 13 13 13 13 12 11 11 11 12 11 12 13
18 20 22 22 24 27 29 30 32 34 36 38 41 41 41 42 41 39 40 40 39 38 37 36 34 32 30 28 28 33 39 40 36 37 43 46 43 40 37 34 32 31 29 29 31 31 29 27 27 27 27 27 28 27 26 24 22 23 24 26 25 23 22 24 24 23 22 21 18 17 15 15 14 13 13 13 13 12 11 11 11 11 12 12 13
19 20 22 25 26 26 27 28 31 33 35 37 40 41 41 41 40 37 35 37 38 38 36 34 32 27 22 21 24 30 35 36 30 30 40 46 45 41 37 34 32 32 30 31 32 33 32 31 29 29 28 28 28 28 25 23 22 21 22 24 26 25 24 24 23 22 21 21 20 18 16 14 14 13 13 13 13 12 11 11 10 11 11 12 13
19 18 20 23 24 23 24 26 28 30 32 35 37 39 40 41 41 40 37 36 36 36 34 33 33 28 20 19 24 29 33 32 27 27 36 45 45 42 40 38 34 32 31 32 33 34 34 34 31 29 28 27 27 26 24 22 22 22 22 23 25 26 27 26 24 23 21 20 20 19 17 16 15 14 13 14 15 14 13 11 11 11 11 11 13
16 17 18 20 21 21 23 27 30 31 32 34 36 39 41 42 43 44 43 40 38 37 34 32 31 30 24 22 24 27 26 24 23 25 31 40 44 44 42 39 34 32 32 33 33 33 34 35 31 28 26 26 25 24 23 23 21 21 22 23 23 24 26 27 26 25 23 20 19 19 19 18 16 16 17 18 19 18 16 13 12 12 12 12 13
14 14 16 17 20 21 24 27 30 32 33 35 38 40 42 43 44 45 45 42 39 37 35 32 32 31 27 23 22 22 20 20 22 23 27 34 41 43 41 38 35 33 33 33 33 33 35 35 32 27 25 24 23 22 23 23 22 21 22 22 22 22 23 24 27 27 24 21 20 20 19 19 18 19 21 21 19 18 16 14 13 13 12 12 13
16 16 15 15 17 21 23 27 30 32 33 35 37 39 40 41 43 44 45 44 41 38 36 35 34 32 27 22 19 19 20 22 23 23 24 29 35 38 39 39 37 35 34 33 32 33 35 36 32 26 23 23 22 22 23 23 22 22 22 21 22 23 22 22 25 27 24 22 22 22 22 22 22 23 22 20 18 16 15 14 14 13 13 13 13
15 17 17 17 19 20 21 25 28 31 33 35 36 37 39 40 41 43 43 43 42 38 36 35 33 30 25 22 20 20 22 22 23 23 25 28 33 37 40 40 38 36 34 34 34 35 36 36 32 26 23 22 22 23 24 23 22 22 22 21 22 23 22 21 21 23 24 25 25 25 25 25 25 25 23 20 17 16 17 17 15 13 13 13 12
11 13 15 17 19 20 21 23 26 29 32 35 36 38 39 39 40 41 42 41 39 36 34 35 34 31 28 25 23 23 23 22 22 24 26 28 32 36 38 38 37 36 36 38 39 38 36 35 32 28 25 24 23 23 23 22 22 21 21 21 21 21 22 21 20 20 24 27 28 27 26 26 25 25 23 20 17 16 17 18 17 15 14 15 14
9 11 11 12 14 16 18 21 23 26 30 33 36 37 37 37 38 39 39 39 36 34 35 36 36 35 33 30 28 28 27 27 28 28 29 30 33 35 37 38 39 40 41 41 40 39 37 35 32 30 28 26 24 23 22 22 22 21 20 20 21 20 22 22 21 22 26 29 28 27 27 26 25 24 22 21 20 19 19 17 16 14 15 15 15
9 10 11 11 11 12 14 16 19 22 26 29 32 33 33 34 35 35 35 35 33 33 35 37 36 36 36 36 35 34 34 34 35 35 35 35 36 38 39 41 43 44 44 42 40 39 38 34 31 31 30 26 24 25 26 25 24 22 21 20 21 22 23 24 24 26 29 29 27 27 27 26 23 22 21 21 21 22 22 20 18 17 15 14 13
7 9 10 11 11 11 11 13 15 19 22 24 27 29 30 31 32 32 32 32 32 34 37 37 37 37 37 39 39 39 40 40 40 38 37 37 39 40 41 43 45 45 42 40 39 38 37 34 32 33 32 27 24 26 27 24 22 22 22 21 22 23 25 27 28 29 30 29 27 27 26 23 21 21 20 20 20 20 21 21 19 19 18 16 14
2 3 5 6 8 8 9 11 14 17 20 22 24 26 27 28 29 30 30 29 32 35 37 37 37 38 38 39 40 40 40 40 39 39 39 40 41 42 42 42 42 39 36 36 35 33 31 31 31 31 30 27 25 25 24 22 21 21 22 23 24 25 27 29 29 30 29 29 29 29 27 23 22 21 21 21 20 21 22 20 18 18 17 16 15
4 3 2 2 2 3 5 8 11 14 16 19 21 22 24 25 26 28 29 29 31 34 36 37 38 39 38 38 38 37 37 37 37 38 38 38 38 38 37 36 34 31 29 30 30 28 27 28 28 26 24 24 24 23 22 22 23 23 23 25 27 28 28 29 29 29 28 28 29 31 31 28 26 25 25 24 23 23 22 20 19 18 16 15 15
10 8 8 7 6 4 2 4 6 9 12 15 17 18 20 22 24 26 26 26 28 31 33 34 35 35 35 35 35 35 34 33 32 32 32 31 31 31 30 28 27 27 26 26 26 25 25 26 25 23 22 22 23 23 23 23 23 24 24 26 27 27 27 27 28 28 27 27 28 31 32 32 31 30 28 28 27 25 22 21 20 19 17 15 15
12 12 12 11 10 9 7 5 4 6 8 10 11 13 16 19 21 22 23 24 25 28 30 31 32 33 34 34 35 34 32 30 29 29 28 27 26 25 23 21 21 23 23 24 24 25 25 24 23 23 22 21 21 22 22 22 22 22 23 23 24 24 24 25 26 26 26 25 26 28 29 29 29 29 28 28 27 25 23 22 22 20 18 16 15
10 11 12 12 13 14 14 12 11 10 9 10 11 12 13 14 15 16 18 19 21 22 24 26 27 30 31 32 32 32 30 29 28 28 27 25 24 23 21 20 21 21 21 21 23 24 24 23 23 23 22 20 20 21 21 21 21 21 20 20 21 22 22 22 23 24 23 22 23 25 25 25 25 25 25 25 24 23 22 22 22 21 19 18 16
10 10 11 12 14 16 17 17 17 16 15 15 15 14 15 16 17 17 16 17 17 18 20 21 22 24 26 27 28 28 27 27 27 27 26 25 24 22 21 20 20 20 20 21 22 22 22 23 24 24 23 21 21 21 21 21 20 19 18 18 18 19 19 19 20 21 22 22 21 21 20 21 22 22 22 21 21 21 21 22 23 22 20 19 18
11 12 12 13 14 16 17 18 18 18 17 16 16 15 16 17 18 18 18 18 18 19 19 19 21 22 23 25 26 26 26 27 28 29 28 27 25 23 22 22 21 21 22 23 23 23 23 24 25 24 24 23 24 23 22 21 19 18 18 17 18 17 17 18 19 20 21 21 21 20 19 18 18 18 19 20 20 20 21 22 23 22 21 19 18
12 12 12 12 13 14 16 17 18 18 17 16 15 14 14 14 15 15 15 16 16 16 17 18 20 21 21 23 24 25 26 28 30 30 29 27 26 24 23 23 23 23 24 24 24 24 24 25 25 24 24 25 26 26 24 22 21 20 19 18 18 18 17 17 18 19 19 19 20 21 20 19 17 15 16 18 19 21 22 23 22 22 21 20 18
11 11 12 12 11 12 13 15 16 16 15 16 16 15 14 14 13 12 12 13 14 15 16 17 18 19 19 20 21 21 23 25 26 26 26 26 25 25 25 25 25 26 25 25 24 24 25 25 24 24 23 24 25 25 23 23 23 22 21 20 20 19 18 16 17 18 18 18 19 20 21 21 20 18 17 17 18 20 22 22 21 20 19 18 17
10 10 11 12 12 11 12 14 15 13 12 13 14 14 13 13 12 11 10 10 12 13 14 16 17 18 19 19 19 20 21 21 22 23 24 24 25 26 26 26 26 25 25 24 23 23 23 23 22 22 21 22 23 23 23 23 23 22 22 22 21 19 17 17 18 19 18 18 18 20 21 22 22 21 19 18 18 19 21 22 22 19 17 16 16
9 9 9 9 10 12 13 13 13 12 12 13 14 14 13 12 11 9 8 8 9 10 12 13 15 17 18 18 19 20 20 20 21 21 22 23 24 25 25 25 25 24 24 23 22 22 21 21 21 21 21 21 21 21 21 21 20 20 19 19 17 16 16 17 19 20 19 19 19 21 22 24 24 22 21 20 20 21 22 23 23 21 19 16 15
Wind_Direction
243 239 234 229 222 220 222 219 216 214 215 221 224 222 221 226 224 213 207 214 215 215 219 222 222 221 221 219 219 220 221 220 219 217 220 228 233 235 237 241 241 239 238 237 236 233 230 227 226 226 224 223 225 223 220 220 220 220 223 223 226 228 222 220 223 225 232 238 245 253 257 261 269 271 268 278 296 313 322 315 319 332 342 338 315
242 241 235 225 221 222 221 218 215 213 216 217 214 220 228 228 220 213 208 208 215 218 219 221 221 221 220 219 219 221 221 220 219 217 220 227 231 235 238 239 239 237 236 235 232 229 225 221 222 223 219 217 215 213 214 217 218 221 223 221 223 225 219 214 212 220 237 243 243 249 257 253 254 272 283 288 294 305 312 308 315 323 327 345 321
242 241 233 221 222 222 217 217 217 213 214 212 211 222 229 225 216 214 208 206 215 219 219 221 221 220 220 219 219 221 221 220 218 217 221 226 230 235 238 236 235 234 234 232 228 225 220 218 220 218 213 210 208 210 213 214 215 218 219 216 218 220 212 208 210 209 220 235 234 239 257 258 237 259 286 296 298 309 314 293 305 318 320 334 332
240 239 233 226 224 219 214 216 217 215 214 212 214 223 226 222 217 212 206 208 215 216 218 220 220 219 218 217 218 220 221 219 217 217 221 223 226 234 237 233 230 231 230 226 223 220 217 216 216 212 208 206 207 210 213 214 215 216 216 216 213 213 209 205 208 203 204 218 213 210 243 268 256 251 277 295 303 316 319 285 297 311 309 315 315
238 236 234 231 223 215 215 216 216 216 216 214 215 219 219 218 217 211 203 207 213 215 218 219 219 219 217 216 218 220 220 218 216 218 221 220 224 232 233 229 229 228 227 223 218 216 214 214 212 207 205 206 207 210 212 212 214 213 211 208 204 208 212 208 204 198 196 203 204 211 235 257 258 252 261 275 291 305 308 297 290 289 297 308 308
236 234 231 228 220 213 216 217 216 215 214 214 215 215 213 214 216 212 204 206 212 215 217 218 219 218 216 216 217 219 220 218 216 219 220 219 224 230 228 226 228 226 223 219 214 212 212 211 208 205 205 208 208 209 211 211 212 211 208 206 206 209 212 209 205 199 194 198 215 236 247 245 246 255 262 265 265 267 279 292 293 288 297 307 305
233 231 230 228 223 217 214 215 215 214 214 214 214 211 210 213 214 211 204 206 213 217 216 217 218 217 215 215 215 218 220 218 217 218 220 220 222 226 227 227 228 226 221 215 211 211 210 208 207 205 205 207 208 209 210 209 210 210 210 212 213 207 203 204 204 199 195 200 219 237 242 244 243 239 255 277 292 284 279 292 293 290 298 306 306
233 231 230 229 228 224 216 213 215 213 212 213 211 208 210 214 214 210 205 206 214 218 216 216 217 215 215 215 215 217 219 219 218 217 219 222 222 225 227 227 227 225 218 212 210 210 209 208 207 205 205 207 207 207 208 208 209 211 212 212 210 204 201 202 201 199 201 205 211 214 220 239 245 231 248 281 306 287 277 288 291 293 302 308 306
233 230 228 228 230 226 215 211 213 212 211 211 210 210 212 214 213 211 208 207 213 217 217 217 215 213 214 215 216 218 219 219 219 217 218 221 222 225 227 225 227 225 216 212 210 209 210 209 206 205 207 208 207 208 209 209 208 212 213 210 206 203 200 200 199 200 205 206 206 210 212 221 230 232 240 255 255 252 268 291 301 299 303 307 305
231 225 223 228 230 221 210 211 213 211 210 210 210 211 210 211 211 210 209 208 213 216 217 217 215 212 213 214 215 217 219 219 219 218 220 224 223 225 226 225 226 223 215 213 211 209 210 210 208 209 210 209 209 209 210 210 210 212 212 207 204 203 203 204 203 200 202 204 207 214 215 213 220 228 230 234 246 258 271 289 299 302 308 311 312
230 223 222 226 225 212 206 212 211 208 210 211 210 208 207 209 210 209 208 207 211 215 216 216 214 211 212 214 215 216 218 219 219 217 220 224 223 223 226 226 226 222 215 213 212 211 210 211 212 212 210 210 211 211 211 212 213 215 211 204 202 204 206 207 208 207 207 205 208 214 215 215 223 229 232 239 253 266 273 283 291 302 310 312 316
228 220 216 216 213 206 206 211 211 209 210 211 210 207 207 209 209 209 209 207 208 212 214 216 214 211 211 214 215 217 218 218 218 217 219 223 223 223 225 226 225 221 215 213 213 213 212 213 214 213 212 213 214 213 213 213 214 214 211 207 205 206 208 210 212 215 212 205 210 219 216 214 227 232 227 227 240 256 268 277 285 297 307 310 312
219 213 208 207 206 205 205 208 212 212 209 211 212 208 204 207 209 210 209 205 206 211 213 215 215 212 211 213 216 218 218 217 216 216 218 223 225 224 224 226 225 220 215 213 213 213 213 215 215 215 215 216 215 214 214 213 214 213 210 210 210 211 214 216 217 220 216 209 212 220 220 217 222 229 231 235 240 247 262 278 286 292 300 304 304
208 208 207 204 204 205 205 209 214 212 208 211 212 206 205 209 210 209 208 208 211 212 211 213 215 212 211 214 217 219 218 215 214 214 215 222 227 224 223 225 223 218 215 213 213 214 215 216 217 217 217 216 214 215 214 213 215 214 212 212 213 215 218 219 219 221 221 219 216 219 230 231 216 218 240 255 258 246 248 265 275 283 294 305 314
206 206 204 202 203 204 204 208 212 209 207 210 210 207 208 210 208 207 208 211 213 212 210 212 214 212 212 214 217 218 217 214 213 213 215 220 223 222 224 225 221 216 213 212 213 215 215 216 217 217 218 217 217 217 216 215 215 214 214 214 214 217 220 220 220 221 222 225 222 219 233 241 228 224 243 261 262 251 254 267 283 298 306 314 320
206 204 202 202 202 203 204 206 208 207 207 210 209 207 208 209 208 208 207 209 213 211 208 211 214 214 214 216 218 219 216 213 212 214 215 216 219 221 223 223 220 215 212 211 212 213 215 216 215 215 217 218 219 219 217 216 216 216 216 215 214 217 221 222 222 223 225 228 227 226 238 249 246 241 249 257 257 257 268 283 298 308 307 307 312
203 202 202 201 201 203 204 205 207 208 207 206 206 207 211 212 212 214 214 214 216 213 208 210 214 215 216 218 221 221 216 211 212 215 214 213 215 220 222 221 218 214 212 211 211 212 214 214 213 214 216 218 220 219 216 216 216 217 217 216 215 218 222 224 224 225 228 232 234 239 246 252 253 253 257 260 259 260 267 276 290 300 299 302 309
202 202 201 200 200 202 203 205 209 209 204 203 207 213 218 218 218 221 220 216 216 215 211 210 213 214 214 217 221 222 217 212 212 215 214 212 214 219 222 221 217 213 212 212 211 211 213 212 211 213 216 219 220 217 215 214 214 217 218 217 218 220 222 226 226 226 230 234 237 242 246 249 253 257 260 260 260 260 260 263 274 290 296 300 307
202 201 200 200 201 201 201 205 208 206 204 208 215 219 220 220 220 221 218 213 216 218 215 211 213 213 212 213 218 220 218 214 213 215 215 212 214 218 220 220 217 213 212 213 211 211 213 212 211 213 216 220 221 217 216 214 214 218 218 217 220 222 223 228 230 230 233 236 239 244 248 250 253 256 259 259 257 257 258 259 266 279 288 296 304
202 200 199 200 201 202 204 205 206 207 211 216 220 219 217 216 216 216 215 213 216 220 218 215 215 215 213 214 217 218 218 216 214 215 215 213 213 216 218 220 218 213 212 213 211 211 213 212 211 214 217 220 220 218 218 217 216 219 219 218 221 222 223 229 232 232 234 237 240 245 249 250 252 255 258 260 261 261 261 259 260 265 277 290 298
202 200 199 199 201 204 206 208 210 214 217 218 218 217 215 214 213 213 213 212 214 219 220 219 218 218 216 216 216 215 216 216 215 214 215 214 213 215 218 221 218 212 211 213 212 212 213 213 213 215 218 220 220 219 219 218 217 219 218 217 221 222 222 226 230 230 230 232 237 242 245 246 248 250 252 256 261 264 266 265 262 260 268 281 290
202 200 199 200 203 204 204 208 213 217 217 216 216 216 214 212 213 214 212 210 213 219 223 222 221 222 221 219 217 216 216 215 214 214 215 213 213 214 217 221 219 214 212 213 213 213 214 215 216 218 220 222 221 219 217 217 215 216 216 216 220 223 221 221 226 228 228 228 231 234 237 237 238 241 243 244 247 251 255 260 261 261 266 273 279
201 201 201 203 205 205 206 212 217 215 213 214 215 214 213 212 213 215 213 211 213 218 224 224 222 223 224 221 217 217 218 215 212 213 213 212 212 214 217 220 220 217 214 214 213 213 216 218 220 222 224 225 223 218 216 215 212 212 215 217 219 222 221 221 226 229 227 227 227 228 232 233 232 236 239 239 243 246 245 248 252 259 269 275 277
201 203 205 206 207 209 213 216 216 213 212 213 214 214 214 214 213 214 214 215 216 217 220 222 222 223 226 223 217 217 220 218 214 212 212 212 212 214 216 219 221 218 214 212 213 215 220 222 222 223 226 225 221 218 217 215 212 211 215 217 217 219 221 223 227 227 224 224 225 227 231 232 231 233 235 237 242 242 238 244 254 265 273 276 277
203 205 208 210 212 214 215 216 214 213 212 213 213 213 214 215 214 213 213 216 220 220 219 221 223 224 226 224 221 220 219 217 214 211 210 211 213 215 216 218 219 215 207 208 213 218 223 222 219 221 223 219 217 218 216 214 211 210 213 215 213 217 222 222 223 226 225 224 226 229 232 233 234 236 235 235 238 240 243 252 263 273 278 277 280
203 205 207 212 214 211 209 210 214 214 213 213 215 215 216 216 215 215 215 216 218 219 220 221 223 224 225 225 225 224 221 216 213 210 207 207 210 213 215 217 216 209 202 207 215 218 217 213 209 211 212 211 214 216 214 211 209 209 212 213 213 218 224 225 224 227 228 227 228 231 233 235 238 238 236 239 243 246 250 258 266 274 279 279 282
205 208 210 212 211 209 207 209 212 213 213 214 215 216 217 216 214 214 216 218 218 217 218 220 222 224 226 225 224 224 219 213 210 208 205 204 207 209 210 213 212 203 199 205 211 208 204 202 199 200 203 207 212 215 215 213 212 213 215 216 216 219 225 229 228 228 229 229 230 232 235 235 235 235 238 245 250 250 250 256 265 273 279 280 282
211 215 216 215 213 211 211 210 209 210 213 215 215 215 215 214 214 214 217 221 222 220 219 222 224 226 227 227 228 229 223 215 212 209 204 203 205 205 206 209 209 204 200 201 201 199 197 196 195 195 198 203 207 210 213 215 217 219 221 222 222 223 227 230 229 228 228 230 230 231 233 233 232 234 239 244 248 248 249 256 265 271 276 279 281
214 219 219 215 213 209 205 206 210 213 216 216 215 215 215 215 218 220 222 225 226 224 222 223 225 229 230 231 234 234 225 218 214 209 205 204 205 204 204 206 207 207 205 201 198 197 195 194 197 199 201 203 205 208 211 215 219 223 224 225 225 225 227 231 233 232 232 231 230 229 229 233 236 239 241 243 243 246 251 257 263 269 272 276 281
213 216 214 211 211 208 204 207 213 217 217 216 214 212 212 215 221 226 227 228 228 228 228 229 230 232 234 235 235 231 224 220 216 209 206 206 207 207 207 207 208 208 206 203 201 199 196 197 202 206 206 206 207 208 209 212 216 219 222 225 224 220 222 228 233 235 234 232 230 229 230 234 238 237 238 239 241 245 252 257 261 265 268 274 281
214 215 214 214 217 216 214 216 219 220 220 218 216 214 214 217 222 227 229 229 229 229 230 232 232 234 239 239 232 226 225 225 223 215 208 206 206 208 209 209 209 208 206 206 205 201 199 202 206 209 209 209 210 210 209 210 212 213 217 221 221 219 220 225 228 229 230 231 230 228 228 231 235 235 237 240 241 243 249 255 260 264 266 272 280
222 220 219 222 226 225 222 222 223 223 224 224 223 223 222 222 224 225 225 226 228 230 231 231 230 229 232 232 227 226 228 228 226 221 213 208 206 208 209 210 210 208 208 210 208 203 203 206 208 209 210 210 210 210 209 210 212 213 213 216 219 220 223 227 228 225 225 228 230 229 228 230 234 236 236 238 238 239 244 253 260 262 265 270 278
226 228 228 229 232 232 228 227 226 225 226 228 228 228 228 227 226 225 223 221 223 227 230 232 229 224 224 227 226 228 231 230 226 224 218 210 208 208 209 208 208 207 207 209 208 206 206 208 210 210 211 211 211 210 211 212 215 216 216 217 220 223 226 229 231 229 226 226 228 230 232 235 238 239 238 238 241 244 248 253 257 261 265 269 274
213 220 225 227 230 232 232 232 231 230 230 231 231 231 231 229 228 227 225 221 220 220 221 223 222 220 221 222 219 218 218 215 215 218 215 209 207 207 206 206 206 205 207 210 211 211 211 211 211 212 212 212 212 212 213 215 216 218 219 219 222 225 225 227 230 232 231 227 226 229 235 236 236 238 242 245 247 247 247 248 250 255 262 265 269
222 222 221 224 231 234 234 235 235 234 234 234 233 233 233 231 229 228 227 224 221 218 214 212 214 215 215 211 206 205 204 202 203 205 205 204 204 204 205 205 204 203 205 210 213 216 216 215 213 212 211 213 214 215 217 217 216 217 218 218 222 225 223 223 229 233 230 226 227 232 236 237 237 240 245 250 249 244 240 241 247 253 257 260 266
234 232 227 227 232 234 234 236 237 237 236 235 234 234 234 231 228 226 224 223 221 218 213 211 210 209 206 201 198 197 195 195 197 197 196 197 200 203 205 205 204 203 205 208 211 216 218 218 216 213 212 214 217 219 219 218 217 218 218 217 220 222 221 221 228 230 227 227 232 235 237 238 240 242 246 249 246 241 240 241 243 249 253 256 262
233 233 230 232 235 235 234 235 237 238 237 235 233 231 229 228 226 224 221 220 218 217 216 214 210 205 200 195 192 189 185 183 187 191 192 194 199 203 206 206 205 206 207 208 210 213 215 217 217 214 213 214 217 219 221 219 217 217 218 219 221 222 222 222 224 227 230 234 237 237 237 239 240 241 243 244 241 242 246 247 246 247 249 252 257
232 230 227 230 235 236 237 237 238 238 237 234 232 230 227 226 225 222 221 219 216 215 216 214 208 203 196 188 182 180 179 179 181 184 188 191 194 198 202 204 206 208 209 210 211 213 215 217 218 218 217 216 218 220 220 218 216 216 218 221 222 221 222 222 220 226 235 239 238 235 236 238 237 236 238 240 242 245 248 246 243 245 248 254 259
229 230 227 227 227 229 235 238 239 240 237 234 232 230 228 226 222 218 216 216 213 211 212 208 203 199 193 184 179 180 182 185 186 185 187 189 190 193 197 201 206 210 212 212 213 215 217 219 220 222 221 217 216 220 220 219 220 220 220 223 224 223 224 223 221 227 236 239 235 232 233 234 232 231 234 239 245 250 252 248 242 240 242 249 255
220 224 224 225 225 226 234 240 242 241 238 235 233 230 228 225 221 217 214 212 208 206 206 203 198 193 189 185 185 186 187 189 189 188 188 190 191 193 197 202 207 211 212 214 215 218 220 222 225 230 230 223 220 226 227 225 223 221 220 223 226 227 228 229 229 233 238 239 233 229 229 229 227 228 232 237 241 247 251 251 245 240 240 245 247
189 213 215 220 224 228 234 238 237 237 235 233 231 229 225 222 219 214 209 206 204 203 200 196 192 188 186 187 189 188 187 187 188 189 191 194 194 195 199 204 209 211 213 215 217 219 222 225 229 235 236 230 225 228 228 222 220 222 223 227 230 232 233 235 236 236 238 238 233 228 227 225 225 227 232 237 240 245 251 250 241 237 241 246 246
90 88 105 142 189 210 224 229 229 228 229 229 228 225 222 220 216 210 203 201 201 200 195 191 188 185 184 186 188 186 187 191 192 192 195 197 198 201 205 209 211 212 213 216 218 219 222 225 226 228 229 226 222 223 222 220 222 225 228 231 234 236 236 237 238 237 236 235 234 232 229 228 228 232 236 239 242 247 249 245 237 234 238 242 240
87 86 86 89 93 101 138 206 216 216 219 220 219 218 217 212 208 203 197 193 194 194 191 188 186 183 182 186 190 193 196 198 198 198 199 200 202 206 208 209 210 212 213 215 217 218 220 223 222 221 222 223 222 222 223 225 228 230 232 236 239 239 236 235 236 237 236 234 234 235 235 234 235 238 241 244 246 247 245 239 234 233 235 235 234
90 93 94 93 90 88 88 100 144 185 202 200 195 200 205 200 193 190 187 181 182 186 186 185 184 184 185 188 193 198 201 201 201 200 200 200 203 206 205 205 210 214 214 214 216 217 219 221 220 219 220 221 221 222 224 226 230 234 237 240 241 241 238 234 234 237 237 235 234 237 239 239 239 240 242 245 247 245 240 235 232 232 233 233 232
94 99 104 105 101 97 94 95 105 123 140 145 149 165 177 171 161 165 170 170 171 176 181 182 184 187 188 190 193 197 199 201 203 203 202 203 204 201 198 201 208 213 214 216 217 219 221 222 221 220 219 217 218 222 223 225 229 234 239 240 241 241 239 236 235 238 240 239 237 239 241 241 240 238 240 242 244 242 236 231 231 233 233 231 230
97 102 111 117 115 112 111 110 110 112 116 121 128 138 144 140 137 142 150 154 160 168 174 177 181 186 189 191 194 196 196 198 202 204 204 205 204 200 198 203 208 211 214 217 218 218 219 221 221 220 217 215 217 221 224 226 231 235 238 240 241 240 239 237 237 237 239 238 236 235 236 238 238 238 237 236 238 238 234 228 228 232 233 230 230
99 104 112 118 120 119 120 120 119 118 120 124 127 133 137 139 142 146 148 153 163 172 177 179 183 187 189 190 192 193 192 193 197 199 199 200 200 199 200 205 208 210 215 218 217 216 218 220 222 223 220 217 218 221 224 228 232 235 237 238 239 238 236 236 236 237 238 238 235 229 225 226 232 238 239 235 232 233 231 227 225 228 230 229 230
103 105 107 112 116 119 122 124 123 124 127 129 131 137 143 146 150 155 158 162 171 178 182 186 189 191 191 191 192 192 192 193 195 195 195 196 199 201 203 207 209 213 217 218 216 215 217 220 223 225 223 219 219 222 224 227 232 236 238 239 239 239 239 238 239 240 240 239 236 232 228 225 224 227 234 235 230 227 227 225 224 225 228 228 228
105 108 111 112 114 118 122 122 120 122 126 129 131 136 140 142 147 155 163 169 175 180 184 188 189 188 187 188 190 191 192 193 195 194 194 197 201 204 206 207 210 213 217 218 217 217 219 222 226 229 227 223 223 225 227 230 233 238 241 241 243 247 248 244 242 243 243 241 240 236 233 231 229 228 233 237 232 226 225 225 222 221 223 225 226
104 109 119 125 127 129 129 122 115 115 122 129 131 131 128 127 131 137 146 158 167 173 179 183 184 183 182 182 182 184 186 189 192 195 197 200 202 206 208 210 211 213 216 217 218 221 224 227 232 234 233 229 228 228 230 232 236 240 243 245 249 254 255 250 246 247 248 246 243 239 235 234 235 233 234 238 238 231 226 223 219 215 216 220 224
101 104 114 124 131 134 132 124 116 115 121 126 127 124 119 118 120 124 132 147 159 164 171 178 182 184 184 183 183 184 186 189 192 195 198 200 203 206 209 210 211 213 216 219 223 227 231 233 234 234 231 229 228 228 230 233 237 240 244 247 250 252 251 247 248 251 251 247 244 241 238 237 237 235 233 235 237 233 224 219 217 217 219 222 227
Height
1457 1460 1463 1466 1470 1472 1473 1476 1479 1482 1483 1485 1487 1489 1491 1494 1497 1500 1504 1506 1508 1511 1513 1515 1517 1519 1521 1522 1524 1525 1526 1528 1529 1530 1531 1532 1533 1533 1533 1534 1534 1535 1535 1536 1537 1537 1538 1539 1540 1540 1542 1542 1543 1544 1545 1546 1546 1547 1548 1549 1550 1550 1551 1552 1553 1552 1551 1552 1552 1553 1553 1553 1554 1554 1554 1553 1552 1551 1551 1550 1548 1547 1547 1547 1545
1453 1456 1460 1463 1465 1467 1469 1472 1475 1478 1479 1481 1484 1485 1487 1489 1493 1496 1499 1502 1505 1508 1510 1512 1514 1516 1518 1519 1521 1522 1524 1525 1526 1528 1529 1530 1530 1530 1531 1531 1532 1532 1533 1534 1534 1535 1536 1537 1538 1538 1539 1540 1541 1543 1543 1544 1545 1546 1546 1547 1548 1548 1549 1550 1551 1550 1549 1550 1551 1551 1551 1552 1553 1552 1552 1552 1551 1550 1550 1549 1548 1547 1546 1545 1545
1449 1452 1456 1459 1460 1462 1466 1468 1471 1474 1475 1478 1480 1481 1482 1486 1489 1491 1495 1499 1501 1504 1507 1508 1511 1513 1514 1516 1518 1519 1521 1522 1524 1525 1526 1527 1527 1528 1528 1528 1529 1530 1530 1531 1532 1533 1534 1535 1535 1536 1537 1539 1540 1541 1541 1542 1543 1544 1545 1546 1546 1547 1548 1549 1550 1550 1549 1549 1549 1550 1550 1551 1551 1551 1550 1550 1549 1549 1549 1549 1547 1546 1545 1544 1544
1445 1448 1451 1454 1456 1459 1461 1464 1467 1470 1471 1474 1475 1476 1479 1482 1484 1487 1491 1495 1497 1501 1503 1505 1508 1509 1511 1513 1515 1516 1517 1519 1521 1522 1523 1524 1525 1525 1525 1526 1526 1527 1528 1529 1529 1530 1531 1532 1533 1534 1535 1537 1538 1538 1539 1540 1541 1542 1543 1544 1545 1545 1546 1548 1549 1549 1548 1548 1548 1549 1549 1549 1550 1550 1549 1549 1548 1547 1547 1547 1546 1545 1544 1543 1542
1440 1443 1446 1449 1452 1454 1457 1459 1462 1464 1467 1469 1471 1473 1475 1478 1480 1483 1487 1491 1493 1496 1499 1502 1504 1505 1507 1510 1511 1513 1514 1516 1518 1519 1520 1521 1522 1522 1522 1523 1524 1524 1525 1526 1527 1528 1529 1530 1531 1532 1533 1534 1535 1536 1537 1538 1539 1540 1541 1542 1543 1544 1545 1546 1547 1548 1548 1547 1547 1548 1548 1548 1548 1548 1548 1548 1548 1547 1547 1546 1545 1545 1544 1542 1541
1435 1438 1441 1444 1446 1449 1452 1455 1457 1459 1462 1465 1467 1469 1472 1474 1476 1480 1484 1487 1489 1492 1495 1498 1500 1502 1504 1506 1508 1510 1511 1513 1515 1516 1517 1518 1519 1519 1519 1520 1521 1522 1522 1523 1525 1526 1527 1528 1529 1530 1531 1532 1533 1534 1535 1536 1537 1538 1539 1540 1540 1541 1544 1545 1545 1546 1547 1546 1546 1546 1547 1547 1547 1547 1547 1547 1547 1547 1546 1546 1545 1544 1543 1542 1541
1431 1433 1435 1438 1441 1444 1447 1449 1451 1454 1457 1461 1463 1465 1468 1470 1472 1476 1480 1483 1485 1487 1491 1494 1496 1499 1501 1503 1505 1507 1508 1510 1511 1513 1514 1515 1516 1516 1517 1517 1518 1519 1520 1521 1522 1523 1524 1526 1527 1528 1529 1530 1531 1532 1533 1534 1536 1537 1537 1538 1539 1540 1542 1543 1544 1544 1545 1545 1545 1545 1545 1545 1546 1546 1546 1545 1545 1545 1545 1545 1545 1544 1543 1542 1540
1425 1428 1430 1433 1435 1438 1441 1444 1447 1449 1453 1457 1460 1462 1464 1466 1469 1472 1476 1479 1481 1483 1487 1490 1492 1496 1498 1500 1502 1503 1505 1506 1508 1509 1511 1512 1513 1513 1514 1515 1516 1516 1518 1519 1520 1521 1522 1523 1525 1526 1527 1528 1529 1530 1531 1533 1534 1535 1536 1537 1538 1539 1540 1541 1542 1543 1544 1544 1544 1545 1545 1544 1544 1545 1544 1544 1544 1544 1544 1544 1544 1544 1542 1541 1540
1420 1423 1426 1428 1430 1434 1437 1441 1443 1445 1448 1452 1455 1457 1460 1462 1465 1469 1472 1475 1477 1480 1483 1486 1488 1492 1494 1496 1498 1499 1501 1503 1504 1506 1508 1509 1510 1511 1511 1512 1513 1514 1515 1517 1518 1519 1520 1521 1523 1524 1524 1525 1527 1528 1529 1531 1532 1533 1534 1535 1537 1538 1539 1540 1541 1542 1542 1543 1543 1544 1544 1544 1544 1544 1543 1543 1544 1544 1543 1542 1543 1543 1542 1540 1539
1416 1418 1421 1423 1426 1430 1434 1437 1440 1442 1444 1447 1450 1453 1456 1459 1462 1465 1468 1471 1473 1476 1479 1482 1484 1487 1490 1492 1493 1495 1497 1499 1501 1504 1505 1507 1508 1509 1509 1510 1511 1512 1513 1515 1516 1517 1518 1520 1521 1521 1522 1523 1525 1526 1528 1529 1530 1531 1532 1534 1535 1536 1537 1538 1539 1540 1541 1541 1542 1543 1542 1543 1543 1542 1542 1542 1541 1541 1541 1541 1542 1542 1541 1540 1539
1411 1413 1416 1419 1422 1426 1430 1433 1436 1438 1441 1443 1446 1449 1452 1454 1458 1461 1465 1467 1469 1472 1475 1478 1480 1483 1485 1487 1489 1491 1494 1496 1499 1501 1503 1504 1506 1506 1507 1508 1509 1510 1511 1512 1514 1515 1517 1518 1518 1519 1521 1522 1523 1524 1526 1527 1528 1529 1530 1532 1533 1534 1535 1536 1537 1538 1539 1540 1541 1541 1541 1542 1541 1541 1541 1540 1539 1539 1539 1540 1540 1540 1540 1539 1538
1406 1409 1412 1415 1419 1422 1425 1428 1431 1434 1437 1440 1443 1446 1448 1451 1454 1457 1460 1463 1465 1468 1471 1474 1476 1479 1481 1483 1486 1488 1491 1493 1496 1499 1500 1502 1503 1504 1505 1505 1506 1507 1509 1510 1512 1513 1514 1515 1516 1518 1519 1520 1521 1523 1524 1525 1526 1527 1528 1529 1531 1532 1533 1534 1535 1536 1537 1539 1539 1540 1540 1540 1540 1539 1539 1539 1538 1538 1538 1538 1539 1539 1539 1538 1537
1401 1404 1408 1412 1415 1418 1421 1424 1427 1429 1432 1436 1439 1442 1445 1447 1450 1453 1456 1459 1461 1463 1467 1470 1472 1475 1477 1480 1482 1485 1487 1490 1493 1495 1497 1499 1500 1501 1502 1502 1503 1504 1506 1507 1509 1510 1512 1513 1514 1516 1517 1518 1520 1521 1522 1523 1524 1525 1526 1528 1529 1531 1532 1532 1533 1534 1535 1537 1538 1538 1538 1539 1539 1539 1538 1537 1536 1536 1537 1537 1537 1537 1537 1537 1535
1398 1400 1404 1407 1411 1414 1417 1420 1422 1423 1428 1432 1434 1438 1441 1443 1446 1449 1452 1455 1457 1459 1463 1466 1468 1471 1474 1476 1479 1482 1484 1487 1490 1492 1494 1495 1497 1498 1498 1498 1499 1500 1502 1504 1505 1507 1509 1510 1512 1513 1515 1516 1518 1519 1520 1521 1522 1523 1524 1526 1527 1529 1530 1531 1532 1533 1534 1535 1536 1537 1537 1537 1537 1537 1536 1535 1535 1535 1535 1536 1536 1535 1535 1534 1533
1394 1396 1399 1403 1406 1409 1413 1416 1417 1419 1423 1427 1430 1433 1436 1438 1442 1446 1448 1450 1452 1456 1459 1462 1464 1468 1471 1473 1476 1478 1481 1484 1487 1489 1490 1492 1494 1495 1495 1495 1496 1497 1499 1500 1502 1504 1505 1507 1509 1511 1513 1514 1515 1517 1518 1519 1520 1521 1522 1524 1525 1527 1528 1529 1530 1531 1532 1533 1534 1535 1535 1535 1535 1535 1534 1534 1534 1533 1533 1533 1533 1533 1532 1531 1531
1390 1392 1395 1398 1402 1404 1408 1411 1413 1415 1418 1422 1425 1428 1431 1434 1438 1442 1444 1447 1449 1452 1455 1458 1461 1465 1467 1470 1473 1475 1478 1481 1484 1485 1487 1489 1491 1492 1492 1493 1493 1494 1496 1497 1499 1500 1502 1504 1507 1509 1510 1512 1513 1515 1516 1517 1519 1520 1521 1522 1524 1525 1526 1527 1528 1529 1530 1531 1532 1532 1533 1533 1533 1533 1533 1532 1532 1532 1532 1532 1532 1531 1531 1531 1531
1385 1388 1391 1394 1397 1400 1403 1406 1408 1410 1413 1416 1419 1422 1426 1430 1434 1437 1440 1444 1446 1448 1451 1454 1458 1461 1463 1466 1469 1471 1474 1478 1480 1482 1484 1486 1488 1488 1489 1490 1491 1492 1493 1495 1496 1497 1499 1501 1504 1506 1508 1509 1511 1513 1514 1516 1517 1518 1519 1520 1522 1523 1524 1525 1526 1527 1528 1529 1530 1531 1531 1532 1531 1531 1531 1531 1531 1530 1530 1531 1532 1532 1531 1531 1530
1381 1384 1386 1389 1392 1395 1398 1401 1403 1405 1408 1411 1413 1417 1421 1426 1429 1432 1436 1440 1442 1444 1447 1451 1455 1457 1460 1462 1465 1467 1471 1474 1477 1479 1481 1483 1484 1485 1486 1487 1488 1490 1492 1493 1494 1495 1496 1498 1501 1503 1505 1507 1509 1511 1512 1513 1515 1516 1517 1519 1520 1521 1522 1523 1525 1526 1526 1527 1528 1529 1530 1530 1530 1530 1530 1529 1529 1529 1529 1530 1530 1531 1530 1530 1529
1377 1380 1383 1386 1389 1391 1395 1397 1399 1401 1404 1406 1409 1413 1417 1421 1425 1429 1433 1437 1439 1441 1445 1448 1451 1453 1456 1459 1462 1464 1467 1470 1473 1475 1477 1479 1481 1482 1484 1485 1486 1487 1489 1491 1492 1493 1494 1496 1498 1500 1502 1504 1506 1508 1509 1511 1512 1514 1515 1517 1518 1519 1521 1522 1523 1524 1525 1526 1526 1527 1528 1528 1528 1528 1528 1528 1528 1528 1528 1528 1528 1529 1529 1529 1528
1375 1377 1380 1383 1386 1388 1391 1393 1395 1397 1399 1402 1405 1409 1413 1417 1421 1425 1428 1432 1435 1438 1441 1444 1447 1449 1453 1456 1459 1461 1463 1466 1469 1471 1473 1476 1478 1480 1481 1482 1483 1485 1486 1488 1490 1491 1492 1493 1496 1497 1499 1501 1504 1506 1507 1509 1511 1512 1514 1515 1516 1517 1519 1520 1521 1522 1523 1524 1525 1526 1526 1527 1527 1527 1526 1526 1526 1526 1526 1526 1527 1527 1528 1527 1527
1373 1375 1376 1379 1382 1384 1386 1388 1391 1393 1396 1399 1402 1406 1409 1413 1417 1421 1425 1429 1432 1434 1437 1440 1443 1446 1449 1452 1454 1456 1458 1462 1465 1468 1470 1473 1475 1477 1479 1480 1481 1482 1484 1486 1488 1489 1490 1491 1493 1495 1497 1499 1502 1504 1506 1508 1509 1511 1512 1514 1515 1516 1518 1519 1519 1520 1521 1522 1523 1524 1525 1525 1525 1525 1525 1525 1525 1525 1524 1524 1525 1525 1526 1526 1525
1370 1372 1374 1375 1378 1380 1382 1385 1387 1390 1393 1396 1399 1403 1407 1411 1415 1418 1422 1425 1428 1430 1433 1436 1439 1442 1444 1447 1450 1452 1453 1457 1461 1464 1467 1469 1472 1474 1476 1478 1479 1480 1482 1484 1486 1487 1488 1489 1491 1493 1495 1498 1500 1502 1504 1506 1508 1509 1511 1512 1513 1514 1516 1517 1517 1518 1519 1520 1522 1523 1524 1524 1524 1524 1524 1525 1525 1524 1524 1523 1523 1524 1524 1524 1523
1368 1370 1371 1372 1374 1377 1379 1381 1383 1387 1390 1393 1396 1401 1405 1409 1412 1415 1419 1422 1425 1427 1430 1432 1435 1437 1439 1442 1446 1447 1449 1452 1456 1460 1463 1466 1469 1472 1474 1475 1477 1479 1480 1482 1485 1486 1487 1488 1490 1492 1495 1497 1498 1501 1503 1504 1506 1507 1509 1510 1511 1513 1514 1515 1516 1516 1517 1519 1520 1522 1522 1523 1523 1523 1523 1524 1524 1524 1524 1523 1523 1523 1522 1522 1521
1365 1366 1368 1369 1372 1374 1376 1378 1381 1384 1387 1390 1394 1398 1402 1406 1409 1413 1416 1419 1421 1424 1426 1428 1430 1432 1434 1438 1441 1443 1444 1448 1452 1457 1461 1464 1467 1469 1472 1474 1476 1478 1479 1481 1483 1485 1486 1487 1489 1492 1494 1495 1497 1500 1502 1503 1505 1506 1508 1509 1510 1511 1513 1514 1514 1515 1516 1517 1518 1520 1520 1521 1521 1522 1522 1522 1523 1523 1522 1521 1521 1521 1520 1520 1519
1362 1363 1365 1367 1369 1372 1374 1377 1379 1382 1385 1388 1392 1395 1399 1403 1406 1410 1413 1416 1418 1419 1422 1424 1425 1428 1431 1435 1437 1438 1440 1445 1450 1454 1458 1462 1465 1467 1469 1472 1474 1476 1478 1479 1481 1483 1484 1486 1489 1491 1492 1494 1496 1498 1500 1501 1503 1505 1506 1507 1509 1510 1511 1512 1513 1513 1514 1515 1516 1517 1518 1519 1519 1519 1520 1520 1520 1520 1519 1519 1519 1519 1518 1518 1517
1359 1361 1363 1365 1368 1370 1372 1375 1378 1380 1383 1386 1390 1393 1396 1400 1403 1406 1409 1411 1412 1414 1416 1418 1421 1424 1427 1431 1434 1434 1436 1442 1447 1450 1454 1457 1461 1464 1466 1469 1472 1474 1476 1478 1479 1481 1483 1485 1487 1489 1490 1492 1494 1495 1497 1499 1501 1503 1504 1505 1507 1508 1509 1510 1511 1512 1512 1513 1514 1515 1516 1517 1517 1517 1517 1517 1517 1517 1517 1517 1517 1517 1517 1517 1516
1357 1359 1361 1364 1366 1368 1370 1373 1375 1378 1381 1384 1387 1390 1393 1396 1399 1401 1403 1405 1407 1409 1411 1413 1417 1420 1424 1427 1429 1430 1434 1439 1443 1445 1448 1452 1455 1459 1463 1467 1469 1471 1472 1475 1477 1479 1481 1483 1485 1486 1488 1490 1492 1494 1496 1498 1499 1500 1501 1503 1505 1506 1507 1508 1509 1510 1510 1511 1512 1513 1514 1515 1515 1515 1515 1515 1515 1515 1515 1515 1515 1515 1515 1515 1514
1357 1358 1360 1362 1364 1367 1369 1371 1373 1376 1378 1381 1384 1386 1389 1391 1393 1395 1397 1400 1402 1404 1407 1410 1414 1417 1419 1422 1425 1429 1434 1437 1438 1439 1443 1447 1451 1455 1459 1463 1465 1467 1469 1472 1475 1477 1479 1481 1483 1484 1486 1487 1489 1491 1493 1495 1496 1497 1498 1500 1502 1503 1505 1506 1507 1507 1508 1509 1510 1511 1512 1512 1513 1513 1513 1513 1514 1514 1514 1514 1514 1513 1513 1513 1513
1356 1358 1360 1362 1363 1365 1367 1369 1371 1374 1377 1379 1381 1384 1386 1388 1389 1392 1396 1398 1401 1403 1405 1408 1411 1413 1416 1419 1421 1425 1429 1431 1433 1436 1441 1444 1448 1451 1454 1457 1461 1464 1467 1470 1472 1475 1477 1480 1481 1482 1483 1485 1487 1488 1490 1492 1493 1494 1496 1498 1500 1501 1502 1503 1504 1504 1505 1506 1507 1508 1509 1509 1510 1510 1511 1511 1512 1512 1512 1512 1512 1512 1512 1511 1511
1355 1357 1359 1361 1362 1364 1365 1368 1370 1373 1375 1377 1379 1382 1384 1386 1389 1392 1394 1397 1399 1402 1404 1407 1409 1411 1413 1415 1417 1420 1423 1426 1430 1435 1438 1442 1446 1449 1452 1456 1459 1462 1464 1467 1470 1473 1475 1477 1478 1479 1481 1482 1484 1486 1488 1489 1491 1492 1493 1495 1497 1499 1500 1500 1501 1502 1503 1503 1504 1505 1506 1507 1508 1508 1509 1509 1510 1510 1510 1510 1510 1510 1510 1510 1509
1354 1356 1357 1359 1360 1362 1365 1367 1369 1371 1373 1375 1378 1380 1382 1384 1387 1390 1392 1395 1397 1399 1402 1405 1407 1409 1411 1412 1414 1417 1421 1424 1429 1432 1434 1438 1442 1447 1451 1455 1458 1460 1462 1464 1467 1470 1473 1475 1476 1477 1479 1480 1482 1484 1485 1487 1488 1490 1491 1492 1494 1496 1497 1497 1498 1499 1500 1500 1501 1502 1503 1504 1505 1506 1507 1507 1508 1508 1508 1508 1508 1508 1508 1508 1507
1352 1354 1356 1357 1358 1361 1364 1365 1367 1370 1372 1374 1376 1378 1380 1382 1384 1387 1389 1392 1394 1397 1400 1402 1404 1407 1409 1410 1411 1414 1416 1421 1425 1429 1431 1435 1440 1444 1448 1452 1455 1458 1460 1462 1465 1467 1470 1472 1474 1475 1476 1478 1480 1482 1483 1485 1486 1487 1489 1490 1491 1492 1493 1494 1495 1497 1497 1498 1498 1499 1500 1501 1502 1503 1504 1505 1505 1504 1505 1505 1506 1506 1506 1506 1506
1352 1353 1354 1355 1357 1359 1361 1363 1365 1368 1370 1372 1374 1375 1377 1379 1381 1383 1385 1388 1391 1394 1396 1399 1402 1404 1407 1407 1409 1411 1413 1417 1421 1425 1428 1433 1438 1442 1445 1449 1452 1455 1458 1460 1462 1465 1467 1469 1471 1473 1474 1476 1478 1480 1481 1482 1484 1485 1486 1487 1488 1489 1490 1491 1492 1493 1494 1495 1496 1497 1498 1499 1500 1500 1501 1501 1501 1501 1502 1503 1504 1504 1504 1504 1504
1351 1352 1353 1354 1355 1357 1359 1361 1363 1365 1367 1369 1370 1372 1374 1376 1378 1379 1381 1384 1387 1389 1392 1395 1398 1401 1404 1405 1406 1408 1410 1413 1417 1421 1425 1429 1434 1438 1442 1446 1449 1452 1455 1457 1460 1462 1464 1466 1468 1470 1472 1474 1476 1477 1478 1479 1481 1482 1483 1484 1486 1487 1488 1488 1488 1489 1490 1492 1493 1494 1495 1496 1497 1497 1498 1498 1499 1499 1500 1501 1501 1502 1502 1502 1502
1350 1351 1352 1353 1354 1355 1357 1359 1360 1362 1364 1366 1367 1369 1371 1373 1374 1376 1377 1379 1381 1384 1387 1391 1394 1397 1400 1402 1404 1406 1408 1411 1414 1418 1421 1425 1430 1435 1439 1442 1445 1448 1451 1454 1457 1459 1460 1462 1465 1468 1470 1472 1473 1475 1476 1477 1477 1479 1480 1481 1483 1485 1486 1485 1485 1486 1487 1489 1490 1491 1492 1493 1494 1494 1495 1496 1497 1497 1498 1498 1499 1500 1500 1500 1500
1348 1349 1350 1351 1352 1353 1355 1356 1358 1359 1361 1363 1365 1366 1368 1370 1371 1372 1374 1375 1377 1381 1385 1388 1392 1395 1398 1400 1403 1405 1407 1409 1412 1415 1419 1423 1426 1430 1434 1437 1441 1444 1448 1450 1452 1454 1457 1459 1463 1466 1468 1469 1471 1472 1473 1474 1474 1475 1476 1478 1480 1481 1482 1482 1482 1483 1484 1485 1486 1487 1489 1490 1491 1492 1493 1494 1494 1495 1495 1495 1497 1497 1498 1498 1498
1346 1347 1348 1349 1350 1351 1353 1354 1356 1357 1359 1360 1362 1363 1364 1366 1368 1369 1370 1372 1375 1379 1383 1385 1388 1391 1394 1398 1401 1403 1405 1407 1410 1414 1417 1421 1424 1428 1432 1435 1439 1442 1444 1446 1448 1450 1453 1456 1459 1462 1464 1466 1468 1470 1470 1471 1471 1472 1473 1474 1476 1477 1479 1479 1480 1480 1480 1481 1483 1484 1486 1487 1488 1489 1491 1491 1492 1492 1492 1493 1494 1495 1495 1496 1496
1345 1346 1347 1348 1349 1350 1351 1352 1354 1355 1356 1358 1359 1360 1361 1363 1365 1366 1367 1369 1373 1376 1379 1380 1383 1387 1390 1394 1397 1400 1402 1405 1408 1411 1415 1418 1422 1426 1429 1433 1436 1438 1440 1442 1445 1447 1450 1453 1455 1458 1460 1462 1464 1467 1468 1467 1468 1468 1470 1471 1472 1474 1475 1476 1477 1477 1477 1478 1480 1482 1483 1485 1486 1487 1488 1489 1489 1489 1490 1491 1492 1493 1493 1494 1494
1345 1345 1346 1347 1347 1348 1349 1350 1352 1353 1354 1355 1356 1357 1359 1361 1362 1364 1365 1367 1370 1373 1375 1378 1381 1384 1387 1390 1394 1396 1399 1401 1404 1408 1411 1415 1419 1423 1426 1429 1432 1434 1436 1439 1442 1445 1448 1450 1453 1455 1456 1459 1461 1462 1463 1463 1464 1465 1467 1468 1469 1469 1470 1472 1473 1473 1473 1475 1477 1479 1480 1482 1484 1485 1485 1486 1486 1486 1487 1488 1489 1490 1491 1492 1492
1344 1345 1345 1345 1346 1347 1348 1349 1350 1351 1352 1353 1354 1355 1357 1358 1360 1362 1363 1366 1368 1370 1373 1376 1379 1381 1384 1388 1391 1393 1394 1397 1401 1406 1410 1414 1417 1420 1423 1426 1428 1430 1433 1437 1440 1442 1445 1448 1450 1451 1453 1455 1457 1458 1458 1460 1461 1462 1463 1464 1464 1465 1466 1467 1469 1470 1470 1472 1475 1476 1478 1479 1481 1482 1483 1483 1484 1484 1484 1485 1486 1487 1488 1489 1490
1344 1344 1344 1344 1345 1346 1346 1347 1348 1349 1350 1351 1352 1353 1355 1356 1358 1360 1362 1364 1366 1369 1372 1375 1378 1381 1384 1387 1390 1393 1395 1397 1400 1404 1408 1411 1414 1416 1419 1422 1425 1428 1432 1435 1437 1440 1443 1445 1447 1448 1449 1451 1454 1454 1455 1457 1457 1458 1459 1460 1460 1461 1462 1463 1465 1466 1468 1469 1471 1473 1475 1477 1478 1479 1480 1480 1481 1481 1482 1483 1484 1485 1486 1487 1487
1344 1344 1344 1344 1345 1345 1346 1346 1347 1348 1349 1350 1351 1353 1354 1355 1357 1358 1360 1362 1364 1367 1371 1374 1377 1381 1385 1388 1391 1394 1396 1397 1400 1402 1406 1410 1413 1416 1418 1421 1424 1427 1431 1433 1436 1439 1441 1443 1445 1446 1446 1448 1450 1451 1452 1453 1453 1454 1455 1456 1456 1457 1459 1460 1461 1463 1465 1466 1468 1470 1471 1473 1474 1475 1476 1477 1477 1478 1479 1480 1481 1483 1484 1485 1485
1345 1345 1345 1345 1345 1345 1345 1346 1347 1347 1348 1350 1351 1352 1353 1354 1356 1358 1359 1361 1364 1367 1370 1373 1377 1381 1385 1388 1390 1392 1394 1396 1399 1403 1406 1410 1413 1416 1418 1422 1425 1428 1430 1432 1435 1437 1439 1441 1442 1443 1444 1445 1447 1447 1448 1449 1450 1451 1451 1452 1453 1454 1456 1457 1459 1460 1462 1464 1465 1466 1468 1469 1471 1472 1473 1473 1474 1475 1476 1478 1479 1480 1481 1482 1483
1347 1347 1346 1346 1347 1346 1346 1347 1347 1348 1349 1350 1351 1352 1354 1355 1356 1358 1359 1361 1364 1367 1371 1374 1377 1381 1384 1386 1388 1390 1393 1396 1400 1403 1406 1410 1412 1415 1419 1422 1425 1427 1429 1430 1433 1435 1436 1438 1439 1440 1441 1442 1443 1444 1445 1446 1447 1448 1449 1449 1450 1451 1453 1455 1456 1457 1459 1461 1462 1463 1464 1466 1467 1469 1470 1470 1471 1472 1473 1475 1476 1477 1479 1480 1481
1350 1349 1349 1348 1349 1349 1349 1349 1349 1350 1350 1351 1352 1354 1356 1357 1358 1360 1362 1364 1366 1369 1372 1375 1378 1381 1383 1384 1386 1389 1393 1396 1400 1403 1406 1409 1412 1415 1418 1420 1422 1424 1426 1428 1430 1431 1433 1435 1436 1437 1438 1440 1441 1442 1443 1444 1444 1445 1446 1447 1448 1450 1451 1453 1454 1455 1457 1458 1460 1461 1462 1463 1464 1465 1466 1467 1468 1469 1470 1472 1473 1474 1476 1477 1478
1353 1352 1352 1352 1352 1352 1353 1353 1353 1353 1354 1354 1356 1357 1359 1360 1361 1363 1365 1367 1370 1372 1374 1377 1379 1382 1383 1385 1387 1390 1394 1397 1400 1403 1406 1408 1411 1413 1416 1418 1420 1422 1424 1426 1427 1429 1430 1432 1433 1434 1435 1437 1439 1440 1441 1441 1442 1444 1445 1446 1447 1448 1449 1451 1452 1453 1454 1456 1457 1458 1459 1460 1461 1462 1463 1465 1465 1466 1468 1469 1471 1472 1473 1475 1476
1356 1356 1355 1356 1356 1356 1356 1356 1356 1356 1357 1359 1360 1361 1362 1362 1364 1365 1367 1369 1371 1373 1375 1378 1381 1383 1384 1385 1387 1389 1393 1396 1399 1401 1404 1407 1409 1412 1414 1416 1418 1420 1421 1423 1425 1427 1428 1429 1430 1432 1434 1435 1436 1438 1439 1440 1441 1442 1444 1445 1446 1447 1448 1449 1450 1451 1452 1453 1455 1456 1457 1458 1459 1460 1461 1462 1463 1464 1465 1466 1468 1469 1471 1472 1473
1358 1358 1358 1359 1359 1359 1359 1359 1359 1360 1361 1362 1363 1364 1365 1366 1367 1368 1369 1371 1372 1374 1376 1378 1380 1382 1384 1385 1387 1389 1392 1395 1398 1400 1402 1405 1408 1411 1413 1415 1416 1418 1419 1421 1422 1424 1425 1427 1428 1430 1432 1433 1434 1435 1437 1438 1439 1440 1442 1443 1444 1445 1446 1447 1448 1449 1450 1451 1452 1453 1455 1456 1457 1458 1459 1459 1460 1461 1462 1464 1465 1467 1468 1470 1471
1361 1361 1361 1361 1362 1362 1362 1363 1363 1363 1364 1365 1367 1368 1368 1369 1370 1371 1371 1373 1374 1376 1377 1379 1381 1383 1384 1386 1387 1390 1392 1395 1397 1400 1402 1404 1407 1409 1411 1413 1415 1416 1417 1419 1420 1422 1423 1425 1426 1428 1429 1431 1432 1433 1435 1436 1437 1438 1440 1441 1442 1443 1444 1445 1446 1447 1448 1449 1450 1451 1452 1453 1455 1456 1456 1457 1458 1459 1460 1461 1463 1465 1466 1467 1468
1364 1364 1364 1364 1364 1364 1365 1365 1366 1367 1368 1369 1370 1370 1371 1372 1372 1373 1373 1374 1376 1377 1379 1381 1382 1384 1385 1387 1388 1390 1393 1395 1397 1400 1402 1404 1406 1408 1410 1412 1413 1414 1416 1418 1419 1420 1422 1423 1425 1426 1427 1429 1430 1432 1433 1434 1435 1436 1438 1439 1439 1440 1442 1443 1444 1444 1445 1447 1448 1449 1450 1451 1452 1453 1454 1455 1455 1456 1458 1459 1461 1463 1464 1465 1466
1366 1366 1366 1366 1366 1366 1367 1367 1368 1369 1370 1371 1371 1372 1373 1373 1374 1374 1375 1376 1377 1379 1380 1382 1383 1385 1386 1388 1390 1391 1393 1395 1397 1399 1401 1403 1405 1407 1409 1411 1412 1414 1415 1417 1418 1419 1420 1422 1423 1424 1425 1427 1428 1429 1431 1432 1433 1434 1435 1437 1438 1439 1440 1441 1441 1442 1443 1445 1446 1447 1448 1448 1449 1450 1452 1453 1453 1454 1456 1457 1458 1460 1462 1463 1464